Overview Statistics Trail Chart Weather Telemetry Raw packets
 

This is the latest recevied weather packets stored in our database for station/object 4S6DRJ-13. If no packets are shown the sender has not sent any weather packets the latest 10 day(s).

<< 171 172 173 174 175 176 177 >>
Time Temp. Humidity Pressure Rain* Wind** Luminosity Snow
1788207941 27.22° C 87% 1008.1 hPa 0 mm 0.89 m/s, 134° 0 W/m² -
1788207880 27.22° C 87% 1008.1 hPa 0 mm 0.89 m/s, 190° 0 W/m² -
1788207820 27.22° C 87% 1008.2 hPa 0 mm 0 m/s 0 W/m² -
1788207758 27.22° C 87% 1008.2 hPa 0 mm 0 m/s 0 W/m² -
1788207697 27.22° C 87% 1008.2 hPa 0 mm 0 m/s 0 W/m² -
1788207636 27.22° C 87% 1008.2 hPa 0 mm 0 m/s 0 W/m² -
1788207593 27.22° C 87% 1008.1 hPa 0 mm 0.45 m/s, 113° 0 W/m² -
1788207514 27.22° C 86% 1008.2 hPa 0 mm 0.45 m/s, 135° 0 W/m² -
1788207453 27.22° C 86% 1008.2 hPa 0 mm 0 m/s 0 W/m² -
1788207392 27.78° C 86% 1008.2 hPa 0 mm 0.45 m/s, 176° 0 W/m² -
1788207331 27.78° C 86% 1008.2 hPa 0 mm 0.89 m/s, 151° 0 W/m² -
1788207270 27.78° C 86% 1008.4 hPa 0 mm 0.45 m/s, 151° 0 W/m² -
1788207209 27.78° C 86% 1008.4 hPa 0 mm 0.89 m/s, 144° 0 W/m² -
1788207148 27.78° C 86% 1008.2 hPa 0 mm 0.45 m/s, 176° 0 W/m² -
1788207087 27.78° C 86% 1008.2 hPa 0 mm 0 m/s 0 W/m² -
1788207026 27.78° C 85% 1008.1 hPa 0 mm 0.89 m/s, 140° 0 W/m² -
1788206965 27.78° C 85% 1008.2 hPa 0 mm 0 m/s 0 W/m² -
1788206904 27.78° C 85% 1008.4 hPa 0 mm 0 m/s 0 W/m² -
1788206843 27.78° C 85% 1008.2 hPa 0 mm 0 m/s 0 W/m² -
1788206782 27.78° C 85% 1008.2 hPa 0 mm 0.89 m/s, 158° 0 W/m² -
1788206721 27.78° C 85% 1008.3 hPa 0 mm 0.45 m/s, 158° 0 W/m² -
1788206664 27.78° C 85% 1008.3 hPa 0 mm 0 m/s 0 W/m² -
1788206599 27.78° C 84% 1008.4 hPa 0 mm 0.45 m/s, 250° 0 W/m² -
1788206538 27.78° C 84% 1008.3 hPa 0 mm 0.45 m/s, 178° 0 W/m² -
1788206477 27.78° C 84% 1008.5 hPa 0 mm 0 m/s 0 W/m² -

* Rain latest hour (hover to see other rain measurements)
** Current wind speed in m/s (hover to see current wind gust speed)